Seattle, WA
on Friday, February 8, 2013

Friday
Previous Day Next Day
Daily Summary
 ActualAverageRecord
Temperature
Mean Temperature °F 43°F  
Max Temperature 46°F 49°F 68°F (1963)
Min Temperature 36°F 37°F 22°F (1994)
Degree Days
Heating Degree Days 24 22  
Month to date heating degree days 163 176  
Since 1 July heating degree days 2737 2825  
Cooling Degree Days 0 0  
Month to date cooling degree days 0 0  
Year to date cooling degree days 0 0  
Moisture
Dew Point 35°F   
Average Humidity 79    
Maximum Humidity 92    
Minimum Humidity 65    
Precipitation
Precipitation 0.00 in 0.13 in 3.06 in (1996)
Month to date precipitation 0.32 1.07  
Year to date precipitation 4.48 6.64  
Snow
Snow 0.00 in in 0.40 in (1957)
Month to date snowfall 0.0  
Since 1 July snowfall 0.6  
Snow Depth 0.00 in   
Wind
Wind Speed 3 mph   
Max Wind Speed 13 mph   
Max Gust Speed 16 mph   
Visibility 10 miles   
Events     

Key: T is trace of precipitation, MM is missing value
Source: NWS Daily Summary
Time(PST)TemperatureDew PointHumidity Pressure Visibility Wind DirectionWind SpeedGust SpeedPrecipitationEvents Conditions
12:53 AM 37.9°F 35.1°F 89% 30.22 in 10.0 miles ENE 5.8 mph - N/A   Mostly Cloudy
1:53 AM 39.0°F 35.1°F 86% 30.23 in 10.0 miles NE 6.9 mph - N/A   Mostly Cloudy
2:53 AM 39.0°F 35.1°F 86% 30.24 in 10.0 miles NNE 8.1 mph - N/A   Overcast
3:16 AM 39.2°F 35.6°F 87% 30.21 in 10.0 miles North 6.9 mph - N/A   Overcast
3:28 AM 37.4°F 33.8°F 87% 30.21 in 10.0 miles NNE 3.5 mph - N/A   Scattered Clouds
3:53 AM 37.9°F 35.1°F 89% 30.25 in 10.0 miles North 3.5 mph - N/A   Mostly Cloudy
4:17 AM 37.4°F 33.8°F 87% 30.22 in 10.0 miles NE 4.6 mph - N/A   Mostly Cloudy
4:53 AM 37.9°F 36.0°F 93% 30.27 in 10.0 miles NE 4.6 mph - N/A   Mostly Cloudy
5:32 AM 37.4°F 33.8°F 87% 30.25 in 10.0 miles Calm Calm - N/A   Overcast
5:53 AM 37.9°F 35.1°F 89% 30.28 in 10.0 miles ENE 4.6 mph - N/A   Mostly Cloudy
6:33 AM 39.2°F 35.6°F 87% 30.25 in 10.0 miles ENE 4.6 mph - N/A   Scattered Clouds
6:46 AM 39.2°F 35.6°F 87% 30.25 in 7.0 miles ENE 4.6 mph - N/A   Overcast
6:53 AM 39.0°F 36.0°F 89% 30.28 in 8.0 miles ENE 4.6 mph - N/A   Overcast
7:41 AM 39.2°F 35.6°F 87% 30.27 in 10.0 miles NNE 3.5 mph - N/A   Overcast
7:53 AM 39.9°F 35.1°F 83% 30.30 in 10.0 miles NNE 3.5 mph - N/A   Overcast
8:53 AM 39.9°F 36.0°F 86% 30.31 in 10.0 miles Calm Calm - N/A   Mostly Cloudy
9:53 AM 42.1°F 36.0°F 79% 30.32 in 10.0 miles Calm Calm - N/A   Overcast
10:03 AM 42.8°F 35.6°F 76% 30.30 in 10.0 miles NE 4.6 mph - N/A   Overcast
10:18 AM 41.0°F 35.6°F 81% 30.30 in 10.0 miles North 3.5 mph - N/A   Mostly Cloudy
10:45 AM 42.8°F 35.6°F 76% 30.30 in 10.0 miles Variable 4.6 mph - N/A   Mostly Cloudy
10:53 AM 44.1°F 36.0°F 73% 30.33 in 10.0 miles North 4.6 mph - N/A   Mostly Cloudy
11:42 AM 42.8°F 35.6°F 76% 30.29 in 10.0 miles North 6.9 mph - N/A   Mostly Cloudy
11:53 AM 43.0°F 35.1°F 74% 30.32 in 10.0 miles North 6.9 mph - N/A   Mostly Cloudy
12:53 PM 44.1°F 33.1°F 65% 30.31 in 10.0 miles North 6.9 mph - N/A   Mostly Cloudy
1:17 PM 44.6°F 33.8°F 66% 30.28 in 10.0 miles NNW 6.9 mph - N/A   Overcast
1:53 PM 45.0°F 34.0°F 65% 30.30 in 10.0 miles North 4.6 mph - N/A   Overcast
2:53 PM 44.1°F 36.0°F 73% 30.30 in 10.0 miles WNW 3.5 mph - N/A   Overcast
3:15 PM 44.6°F 35.6°F 71% 30.28 in 10.0 miles Calm Calm - N/A   Overcast
3:53 PM 44.1°F 36.0°F 73% 30.31 in 10.0 miles Calm Calm - N/A   Overcast
4:53 PM 43.0°F 35.1°F 74% 30.31 in 10.0 miles Calm Calm - N/A   Overcast
5:53 PM 43.0°F 36.0°F 76% 30.30 in 10.0 miles Calm Calm - N/A   Overcast
6:53 PM 43.0°F 36.0°F 76% 30.30 in 10.0 miles Calm Calm - N/A   Overcast
7:53 PM 42.1°F 36.0°F 79% 30.31 in 10.0 miles NW 4.6 mph - N/A   Overcast
8:53 PM 42.1°F 36.0°F 79% 30.31 in 10.0 miles Calm Calm - N/A   Overcast
9:53 PM 42.1°F 36.0°F 79% 30.31 in 10.0 miles Calm Calm - N/A   Overcast
10:53 PM 42.1°F 36.0°F 79% 30.30 in 10.0 miles Calm Calm - N/A   Overcast
11:53 PM 42.1°F 36.0°F 79% 30.30 in 10.0 miles Calm Calm - N/A   Overcast
Moon Phase
Feb. 08 Feb. 10 Feb. 17 Feb. 25 Mar. 04
Sunrise:07:25 AM (PST) Moon Rise:06:00 AM (PST)2/8
Sunset:05:22 PM (PST) Moon Set:04:00 PM (PST)2/8

Copyright © 2014 The Weather Underground, Inc.